Location: Campillo
(40.8621°N, 4.2488°W)
Time: 12:18:29
(UTC+00:00)

Cosmos 1486 Rocket - Pass Details

Date: 11 May 2021
Orbit: 759 x 783 km, 74.1° (Epoch: 14 June)

Event Time Altitude Azimuth Distance (km) Brightness Sun altitude
Rises 19:48:56 0° 192° (SSW) 3,249 7.1 -5.0°
Reaches altitude 10° 19:51:18 10° 191° (S) 2,327 6.3 -5.4°
Maximum altitude 19:56:35 74° 107° (ESE) 815 4.0 -6.3°
Drops below altitude 10° 20:01:55 10° 23° (NNE) 2,347 6.6 -7.2°
Sets 20:04:19 0° 22° (NNE) 3,279 7.4 -7.5°
